This is the latest recevied weather packets stored in our database for station/object KY4LEX. If no packets are shown the sender has not sent any weather packets the latest 10 day(s).
| Time | Temp. | Humidity | Pressure | Rain* | Wind** | Luminosity | Snow |
|---|---|---|---|---|---|---|---|
| 1778042435 | 14.44° C | 95% | 1011.9 hPa | 0 mm | - | 0 W/m² | - |
| 1778042132 | 14.44° C | 95% | 1012.3 hPa | 0 mm | - | 0 W/m² | - |
| 1778041831 | 14.44° C | 95% | 1012 hPa | 0 mm | - | 0 W/m² | - |
| 1778041529 | 14.44° C | 95% | 1012.2 hPa | 0 mm | - | 0 W/m² | - |
| 1778041227 | 14.44° C | 95% | 1012.3 hPa | 0 mm | - | 0 W/m² | - |
| 1778040925 | 14.44° C | 95% | 1012.5 hPa | 1.27 mm | - | 0 W/m² | - |
| 1778040622 | 14.44° C | 95% | 1012.6 hPa | 3.05 mm | - | 0 W/m² | - |
| 1778040320 | 14.44° C | 94% | 1012.7 hPa | 3.05 mm | - | 0 W/m² | - |
| 1778040015 | 15° C | 94% | 1012.7 hPa | 7.11 mm | - | 0 W/m² | - |
| 1778039712 | 15° C | 93% | 1013 hPa | 7.87 mm | - | 0 W/m² | - |
| 1778039409 | 15° C | 92% | 1013.2 hPa | 1.78 mm | - | 0 W/m² | - |
| 1778039107 | 15° C | 91% | 1013.3 hPa | 0 mm | - | 0 W/m² | - |
| 1778038803 | 15° C | 90% | 1013.3 hPa | 1.78 mm | - | 0 W/m² | - |
| 1778038501 | 15° C | 91% | 1013.1 hPa | 1.78 mm | - | 0 W/m² | - |
| 1778038197 | 15° C | 92% | 1013.2 hPa | 0 mm | - | 0 W/m² | - |
| 1778037895 | 15.56° C | 91% | 1013.2 hPa | 0 mm | - | 0 W/m² | - |
| 1778037591 | 15.56° C | 91% | 1013.7 hPa | 1.27 mm | - | 0 W/m² | - |
| 1778037289 | 15.56° C | 88% | 1013.7 hPa | 3.05 mm | - | 0 W/m² | - |
| 1778036986 | 16.11° C | 86% | 1013.9 hPa | 1.78 mm | - | 0 W/m² | - |
| 1778036684 | 16.67° C | 83% | 1013.7 hPa | 0 mm | - | 0 W/m² | - |
| 1778036381 | 17.22° C | 79% | 1013.9 hPa | 0 mm | - | 0 W/m² | - |
| 1778036077 | 16.67° C | 80% | 1013.8 hPa | 0 mm | - | 0 W/m² | - |
| 1778035774 | 16.67° C | 82% | 1013.6 hPa | 0 mm | - | 0 W/m² | - |
| 1778035471 | 16.67° C | 84% | 1013.4 hPa | 0 mm | - | 0 W/m² | - |
| 1778035167 | 16.11° C | 91% | 1013.5 hPa | 0 mm | - | 0 W/m² | - |
* Rain latest hour (hover to see other rain measurements)
** Current wind speed in m/s (hover to see current wind gust speed)